[[[{"header":{"parameterUnit":"kt","parameterCategory":2,"dx":1,"dy":1,"la1":30.253999710083008,"la2":30.299108505249023,"lo1":-89.0895004272461,"lo2":-89.04439544677734,"nx":28,"ny":28,"refTime":"2022-10-20T21:00:00:Z","depth":0,"parameterNumber":1,"parameterNumberName":"U-component_of_WINDS"},"data":[0.662,0.6644,0.6569,0.6561,0.6492,0.6473,0.6442,0.6393,0.6335,0.6303,0.6271,0.6197,0.6109,0.6051,0.6012,0.5979,0.5967,0.6031,0.5981,0.5767,0.5732,0.5699,0.5688,0.603,0.603,0.6213,0.6215,0.6216,0.6469,0.6401,0.6375,0.6299,0.6275,0.6168,0.6098,0.6086,0.6072,0.6001,0.5965,0.593,0.5893,0.578,0.5731,0.5739,0.5685,0.5731,0.5728,0.5716,0.5484,0.5473,0.5775,0.5775,0.5775,0.5775,0.5775,0.5775,0.6172,0.619,0.6099,0.6069,0.601,0.596,0.5963,0.587,0.5843,0.5784,0.5698,0.568,0.5593,0.5496,0.5445,0.5427,0.5362,0.5388,0.5394,0.5403,0.5422,0.5166,0.5416,0.5414,0.5413,0.5412,0.5411,0,0.5932,0.5867,0.5836,0.5784,0.5758,0.571,0.5652,0.5652,0.5487,0.5472,0.5443,0.5413,0.5354,0.5317,0.5254,0.5193,0.5079,0.506,0.5077,0.5118,0.5163,0.5138,0.4763,0.5053,0.505,0.5047,0.5045,0.5044,0.5626,0.5656,0.5523,0.5512,0.5461,0.5446,0.5421,0.5273,0.5253,0.516,0.5182,0.5144,0.5105,0.5071,0.4962,0.4917,0.4861,0.498,0.4854,0.4892,0.4861,0.486,0.4862,0.5008,0.5012,0.5016,0.5019,0,0.5461,0.5335,0.5356,0.5221,0.5188,0.5227,0.511,0.5122,0.503,0.5033,0.5024,0.4881,0.4855,0.4725,0.4669,0.4602,0.4662,0.4609,0.469,0.4672,0.4765,0.4758,0.5089,0.5124,0.4769,0.4773,0.4776,0,0.515,0.5195,0.5004,0.5023,0.5068,0.4917,0.4965,0.489,0.4813,0.4813,0.4663,0.4667,0.4499,0.4484,0.4385,0.4411,0.4401,0.435,0.4324,0.4363,0.437,0.435,0.4333,0.4263,0.4261,0.426,0.4259,0,0.4904,0.4854,0.4884,0.4853,0.4713,0.473,0.4673,0.4584,0.4561,0.451,0.4493,0.4445,0.4419,0.4384,0.4257,0.4176,0.4286,0.4148,0.4234,0.4238,0.4265,0.4265,0.4591,0.4257,0.4256,0.4256,0.4255,0,0.4632,0.4584,0.4647,0.4526,0.4519,0.4539,0.448,0.4467,0.4385,0.4323,0.4282,0.4166,0.4179,0.4051,0.4066,0.3996,0.3978,0.3931,0.3935,0.3927,0.3788,0.3989,0.4314,0.4342,0.3921,0.3918,0.3916,0,0.4385,0.4414,0.4284,0.4347,0.4342,0.4172,0.4191,0.4123,0.4042,0.4025,0.3935,0.3919,0.3796,0.3773,0.3797,0.3704,0.3795,0.3688,0.3666,0.3667,0.3692,0.3989,0.4069,0.4257,0.3879,0.3883,0.3885,0,0.4176,0.4004,0.4025,0.3981,0.3866,0.3862,0.3885,0.3834,0.383,0.3771,0.3785,0.3759,0.3665,0.3628,0.3529,0.3561,0.3729,0.3456,0.3451,0.3509,0.3849,0.3925,0.3957,0.3654,0.3659,0.3662,0.3856,0,0.3792,0.3791,0.3841,0.3752,0.3727,0.376,0.362,0.3613,0.3518,0.3431,0.3451,0.3362,0.3311,0.3313,0.3222,0.3339,0.3298,0.3199,0.3064,0.3261,0.3321,0.3346,0.2986,0.2981,0.2977,0.2974,0,0,0.3586,0.358,0.3435,0.3452,0.3422,0.3243,0.3291,0.3241,0.3147,0.313,0.3054,0.3006,0.2937,0.2976,0.3026,0.3007,0.3014,0.2952,0.3169,0.3191,0.3212,0.3279,0.3307,0.2967,0.2965,0.2964,0.2962,0,0.3416,0.3348,0.3396,0.3338,0.3247,0.3152,0.3164,0.3042,0.2989,0.3008,0.286,0.2856,0.2823,0.2767,0.2735,0.2943,0.2832,0.2939,0.3097,0.3133,0.3161,0.3185,0.3258,0.3286,0.2953,0.2953,0.2954,0,0.3184,0.3094,0.3102,0.3026,0.2965,0.2965,0.2789,0.2798,0.2796,0.26,0.2622,0.2554,0.247,0.2526,0.2546,0.2477,0.2674,0.2588,0.261,0.2609,0.2637,0.2671,0.2701,0.2307,0.2306,0.2304,0,0,0.3057,0.3054,0.291,0.2979,0.2951,0.281,0.2797,0.27,0.2627,0.2599,0.2509,0.2443,0.2421,0.241,0.2383,0.2465,0.2434,0.2514,0.2545,0.257,0.2584,0.2619,0.2653,0.2298,0.2298,0.2297,0,0,0.2995,0.2831,0.2747,0.281,0.2746,0.2609,0.2657,0.2552,0.2512,0.2493,0.2331,0.2307,0.2356,0.2296,0.2227,0.2332,0.2202,0.2216,0.237,0.2407,0.2436,0.245,0.2035,0,0,0,0,0,0.2749,0.285,0.2777,0.2766,0.267,0.265,0.2637,0.2505,0.2414,0.2455,0.2363,0.2245,0.2225,0.216,0.2152,0.2231,0.2216,0.223,0.2244,0.2462,0.2501,0.2535,0,0,0,0,0,0,0.2743,0.2731,0.2773,0.2644,0.262,0.2645,0.2463,0.243,0.2407,0.2384,0.2266,0.2241,0.2129,0.2155,0.215,0.2227,0.2036,0.2222,0.2234,0.2245,0.2475,0.2508,0.2535,0,0,0,0,0,0.2739,0.2728,0.2609,0.2641,0.2621,0.247,0.2458,0.2429,0.2409,0.2266,0.2236,0.2311,0.2135,0.2121,0.2151,0.2233,0.2038,0.2037,0.223,0.2239,0.2248,0.2491,0,0,0,0,0,0,0.2735,0.2701,0.2602,0.2591,0.2592,0.2466,0.2441,0.2429,0.2289,0.2261,0.2302,0.2286,0.214,0.2129,0.2119,0.2242,0.204,0.2039,0.2038,0.2237,0.2245,0.2251,0,0,0,0,0,0,0.2706,0.2694,0.2596,0.2542,0.2523,0.2463,0.2441,0.2448,0.229,0.2333,0.2314,0.2297,0.2154,0.2135,0.2127,0.2142,0.2042,0.204,0.2039,0.2039,0.2243,0.2249,0,0,0,0,0,0,0.2698,0.2687,0.2544,0.253,0.2513,0.238,0.2466,0.2375,0.2243,0.2342,0.2228,0.222,0.2164,0.2152,0.2133,0.2153,0.2145,0.2042,0.2041,0.204,0.204,0,0,0,0,0,0,0,0.2692,0.2795,0.2667,0.252,0.2505,0.2489,0.2486,0.2483,0.2242,0.2235,0.2229,0.2223,0.2049,0.2047,0.2046,0.2161,0,0,0.2042,0.2041,0,0,0,0,0,0,0,0,0.2797,0.2796,0.2667,0.2665,0.2662,0.2489,0.2486,0.2484,0.2241,0.2236,0.2231,0.2226,0.2048,0.2047,0.2046,0,0,0,0,0,0,0,0,0,0,0,0,0,0,0,0.2667,0.2665,0,0.2488,0.2486,0.2484,0.224,0.2236,0.2232,0.2228,0.2048,0.2047,0.2046,0,0,0,0,0,0,0,0,0,0,0,0,0,0,0,0,0,0,0,0,0,0,0,0,0,0,0,0,0,0,0,0,0,0,0,0,0,0,0,0,0,0,0,0,0,0,0,0,0,0,0,0,0,0,0,0,0,0,0,0,0,0,0,0,0,0,0,0,0]}],[{"header":{"parameterUnit":"kt","parameterCategory":2,"dx":1,"dy":1,"la1":30.253999710083008,"la2":30.299108505249023,"lo1":-89.0895004272461,"lo2":-89.04439544677734,"nx":28,"ny":28,"refTime":"2022-10-20T21:00:00:Z","depth":0,"parameterNumber":2,"parameterNumberName":"V-component_of_WINDS"},"data":[-2.0117,-2.0185,-2.0215,-2.0308,-2.035,-2.042,-2.0455,-2.0504,-2.0551,-2.064,-2.0698,-2.0737,-2.0799,-2.0878,-2.0944,-2.0961,-2.0987,-2.099,-2.101,-2.0964,-2.096,-2.0956,-2.094,-2.0996,-2.0996,-2.1052,-2.1053,-2.1053,-2.0085,-2.0127,-2.0184,-2.0259,-2.0309,-2.0324,-2.0386,-2.0428,-2.0491,-2.0549,-2.0607,-2.0689,-2.0759,-2.0821,-2.0895,-2.0931,-2.0944,-2.0949,-2.0947,-2.0957,-2.0909,-2.0892,-2.0938,-2.0938,-2.0938,-2.0938,-2.0938,-2.0938,-2.0035,-2.0074,-2.0135,-2.0198,-2.0244,-2.0295,-2.0339,-2.0384,-2.0442,-2.0519,-2.0544,-2.0617,-2.0684,-2.0787,-2.083,-2.089,-2.089,-2.0906,-2.0911,-2.0914,-2.0914,-2.0829,-2.0904,-2.0904,-2.0904,-2.0904,-2.0904,0,-2.0006,-2.0027,-2.0083,-2.0148,-2.0195,-2.0249,-2.0304,-2.0332,-2.0389,-2.0436,-2.0505,-2.0551,-2.0643,-2.0714,-2.079,-2.0831,-2.0853,-2.0859,-2.087,-2.0858,-2.0839,-2.0851,-2.0773,-2.0856,-2.0856,-2.0855,-2.0855,-2.0855,-1.9957,-2.0,-2.0077,-2.0113,-2.0149,-2.0207,-2.0247,-2.0294,-2.0335,-2.0412,-2.0446,-2.0517,-2.0576,-2.0685,-2.074,-2.081,-2.0821,-2.085,-2.0832,-2.082,-2.0823,-2.082,-2.0826,-2.0852,-2.0852,-2.0853,-2.0853,0,-1.9928,-1.9973,-2.0048,-2.0121,-2.0141,-2.0184,-2.0248,-2.0291,-2.033,-2.0395,-2.0414,-2.0476,-2.0545,-2.0595,-2.0684,-2.0709,-2.0788,-2.0796,-2.0765,-2.077,-2.0801,-2.0798,-2.0892,-2.0908,-2.085,-2.0851,-2.0851,0,-1.9904,-1.9958,-2.0023,-2.0064,-2.0127,-2.017,-2.0232,-2.0271,-2.0326,-2.0378,-2.0408,-2.0456,-2.0513,-2.057,-2.0606,-2.0679,-2.0695,-2.0719,-2.0728,-2.0716,-2.0713,-2.0739,-2.0737,-2.0745,-2.0745,-2.0744,-2.0744,0,-1.9852,-1.9949,-2.0016,-2.0046,-2.0129,-2.016,-2.0197,-2.0257,-2.0297,-2.0357,-2.0384,-2.0451,-2.0488,-2.0542,-2.0587,-2.0573,-2.0676,-2.0667,-2.0701,-2.0699,-2.072,-2.0718,-2.079,-2.0743,-2.0743,-2.0743,-2.0743,0,-1.9839,-1.9894,-1.9984,-2.0054,-2.0078,-2.0122,-2.0189,-2.0239,-2.0301,-2.0326,-2.0373,-2.0399,-2.0465,-2.0452,-2.0545,-2.0514,-2.055,-2.0578,-2.0582,-2.059,-2.0573,-2.0607,-2.067,-2.0679,-2.06,-2.0598,-2.0597,0,-1.9768,-1.9869,-1.9906,-1.999,-2.0044,-2.0072,-2.0124,-2.0177,-2.0213,-2.0266,-2.0308,-2.0368,-2.0369,-2.0394,-2.0434,-2.048,-2.052,-2.0476,-2.0556,-2.0559,-2.0538,-2.0597,-2.0593,-2.0651,-2.0583,-2.0584,-2.0585,0,-1.9717,-1.9814,-1.9826,-1.9862,-1.9936,-1.9981,-2.0039,-2.0107,-2.014,-2.0196,-2.0247,-2.0333,-2.0338,-2.0379,-2.0407,-2.0446,-2.0494,-2.0445,-2.0447,-2.0453,-2.0579,-2.0575,-2.0585,-2.0505,-2.0507,-2.0509,-2.0574,0,-1.9689,-1.9744,-1.9779,-1.9854,-1.9896,-1.995,-1.9998,-2.0037,-2.0058,-2.0094,-2.0171,-2.0227,-2.0298,-2.0321,-2.0342,-2.0414,-2.041,-2.0413,-2.0403,-2.0441,-2.0464,-2.0473,-2.0365,-2.0365,-2.0365,-2.0365,0,0,-1.9609,-1.9688,-1.9725,-1.9781,-1.9818,-1.9846,-1.99,-1.9941,-2.0021,-2.0047,-2.0042,-2.0171,-2.0216,-2.0304,-2.032,-2.0348,-2.0366,-2.035,-2.0422,-2.0428,-2.0434,-2.0458,-2.0466,-2.0365,-2.0365,-2.0365,-2.0365,0,-1.9607,-1.9648,-1.97,-1.9743,-1.9806,-1.9841,-1.9853,-1.9922,-1.9947,-2.002,-2.0043,-2.0095,-2.0195,-2.0242,-2.0278,-2.0341,-2.0356,-2.0359,-2.0377,-2.0421,-2.0427,-2.0432,-2.0456,-2.0464,-2.0365,-2.0365,-2.0365,0,-1.9566,-1.9615,-1.9644,-1.9727,-1.9769,-1.9824,-1.9824,-1.9881,-1.9922,-1.995,-2.0022,-2.006,-2.0126,-2.0201,-2.0237,-2.0233,-2.0344,-2.0317,-2.0319,-2.0324,-2.0369,-2.0376,-2.0383,-2.0297,-2.0297,-2.0297,0,0,-1.9558,-1.9609,-1.9675,-1.973,-1.9755,-1.9807,-1.984,-1.9863,-1.9919,-1.9941,-1.9989,-2.0044,-2.0104,-2.0142,-2.02,-2.0276,-2.0294,-2.0307,-2.031,-2.0313,-2.0319,-2.0364,-2.0372,-2.0295,-2.0295,-2.0295,0,0,-1.9555,-1.9632,-1.9642,-1.9712,-1.9763,-1.9833,-1.9867,-1.9881,-1.9937,-1.9936,-1.9981,-1.9998,-2.0069,-2.0105,-2.0077,-2.0197,-2.0187,-2.0194,-2.017,-2.0175,-2.0178,-2.0168,-2.0086,0,0,0,0,0,-1.9576,-1.9623,-1.9631,-1.9649,-1.9755,-1.9828,-1.9842,-1.9878,-1.987,-1.9896,-1.9939,-1.9952,-2.01,-2.0075,-2.0095,-2.0126,-2.0273,-2.0277,-2.0281,-2.0268,-2.0272,-2.0276,0,0,0,0,0,0,-1.9584,-1.9606,-1.963,-1.97,-1.9724,-1.9827,-1.9821,-1.9832,-1.9868,-1.9869,-1.9943,-1.9954,-1.9988,-2.0068,-2.0085,-2.0114,-2.0081,-2.0275,-2.0278,-2.0281,-2.0269,-2.0273,-2.0276,0,0,0,0,0,-1.959,-1.9608,-1.9767,-1.97,-1.9721,-1.978,-1.9819,-1.9828,-1.9857,-1.9923,-1.9934,-1.9881,-1.9988,-2.0004,-2.0078,-2.0105,-2.0069,-2.0076,-2.0277,-2.0279,-2.0282,-2.0271,0,0,0,0,0,0,-1.9594,-1.9618,-1.9772,-1.978,-1.9684,-1.9775,-1.979,-1.9825,-1.9909,-1.9921,-1.9863,-1.9863,-1.9988,-2.0001,-2.0014,-2.01,-2.006,-2.0066,-2.007,-2.0279,-2.0281,-2.0282,0,0,0,0,0,0,-1.9609,-1.9624,-1.9777,-1.9754,-1.976,-1.977,-1.9784,-1.9852,-1.991,-1.9845,-1.9847,-1.9862,-1.997,-1.9999,-2.0009,-2.0114,-2.0053,-2.0059,-2.0063,-2.0066,-2.028,-2.0282,0,0,0,0,0,0,-1.9616,-1.963,-1.9752,-1.9757,-1.9762,-1.9853,-1.9832,-1.9939,-1.9888,-1.9841,-1.9885,-1.9883,-1.9968,-1.9978,-2.0005,-2.0106,-2.0112,-2.0053,-2.0057,-2.006,-2.0062,0,0,0,0,0,0,0,-1.9622,-1.9521,-1.9725,-1.9759,-1.9763,-1.9853,-1.9855,-1.9857,-1.9888,-1.9887,-1.9885,-1.9884,-2.0019,-2.0026,-2.0032,-2.01,0,0,-2.0053,-2.0056,0,0,0,0,0,0,0,0,-1.9516,-1.952,-1.9726,-1.9727,-1.9729,-1.9853,-1.9855,-1.9857,-1.9888,-1.9887,-1.9885,-1.9884,-2.0021,-2.0026,-2.0031,0,0,0,0,0,0,0,0,0,0,0,0,0,0,0,-1.9726,-1.9727,0,-1.9854,-1.9855,-1.9857,-1.9887,-1.9887,-1.9886,-1.9885,-2.0022,-2.0027,-2.0031,0,0,0,0,0,0,0,0,0,0,0,0,0,0,0,0,0,0,0,0,0,0,0,0,0,0,0,0,0,0,0,0,0,0,0,0,0,0,0,0,0,0,0,0,0,0,0,0,0,0,0,0,0,0,0,0,0,0,0,0,0,0,0,0,0,0,0,0,0]}]]]